Vertical_Velocity
-2 -1 -1 -1 -2 -2 -2 -1 -1 -2 -1 -3 -1 -2 -2 -3 2 -2 2 -1 -0 7 0 4 1 4 7 -4 1 10 12 -5 0 -7 3 3 5 1 10 2 7 -7 1 12 -1
-2 -2 -2 -3 -3 -3 -3 -2 -3 -2 -2 -1 -1 -2 -2 -0 -3 -1 4 -2 0 8 0 -1 2 4 1 -1 1 7 -0 -10 -6 10 -8 10 7 3 3 8 -3 8 4 -0 9
-3 -2 -2 -2 -2 -2 -3 -4 -1 -3 -2 -0 -1 -2 1 -3 -4 2 -2 -2 1 2 3 -3 -5 4 4 14 -3 2 -9 2 -9 6 -1 16 -8 2 -4 -4 24 16 -2 7 -4
-3 -2 -3 -3 -3 -4 -3 -3 -3 -4 -2 -1 -2 -2 1 -4 -2 1 1 2 -3 -3 -1 0 -0 9 1 -10 8 7 6 3 2 6 -6 16 -8 -6 8 -9 10 13 25 12 7
-0 -3 -3 -3 -1 -3 -5 -4 -0 -3 -1 1 -2 -2 1 -3 -2 0 -1 -0 3 -0 1 -1 2 5 5 5 6 -4 -3 1 2 -5 -1 5 4 -0 -8 -9 6 7 11 9 9
-4 -2 -3 -4 -3 -4 -3 -1 -1 -3 -1 1 -2 -3 -2 -2 -2 -1 -4 -1 1 -4 2 1 5 -2 -0 2 -0 1 -0 -1 -0 2 -2 1 6 7 5 15 12 0 -3 9 3
-3 -1 -1 -2 -3 -4 -5 -4 -1 -3 -1 -1 -1 -0 -2 -3 -4 -5 -3 -2 -0 -2 -1 -2 -1 8 1 -5 -1 0 3 0 1 1 -16 4 -9 -20 6 -17 27 7 6 -7 5
-2 -2 -2 -4 -4 -2 -5 -3 -2 -3 0 1 -5 -1 -1 -3 -3 1 4 4 2 -2 3 3 -1 -0 -1 -1 4 1 8 4 -1 -2 8 -7 -26 3 17 5 18 -9 -2 6 -5
-3 -5 -4 -2 -4 -2 -4 -5 -2 -3 2 1 -4 1 -4 -1 1 -1 -1 -0 -0 2 7 -6 2 -0 -3 0 3 -1 1 -4 0 7 6 -5 -9 -2 -11 -15 -17 26 -6 9 -2
-3 -4 -3 -2 -3 -3 -3 -1 1 3 1 -2 -7 -6 -3 -0 -7 -3 4 1 0 -1 1 -2 -1 -2 -1 1 -6 -1 2 1 -0 1 2 17 1 -6 -7 -10 -5 -5 9 -2 -1
-2 -5 -5 -2 -3 -5 -3 -2 10 1 -5 -11 2 5 5 4 -1 3 -3 0 2 3 1 1 -0 0 -2 8 4 6 -4 -3 -2 1 8 11 -2 -3 2 1 -24 -20 23 -4 5
-4 -3 -4 -2 -6 -4 -6 -8 -3 -2 -0 -2 -3 -4 -0 -3 -4 0 2 1 -0 1 1 -3 -3 -0 -2 -3 2 2 0 0 4 2 -0 -1 -1 -1 -3 5 2 -3 2 21 5
-5 -5 -3 -1 -2 -2 -6 -5 0 -1 -1 -1 -2 1 -0 3 -2 -0 1 2 -1 1 0 -2 5 2 1 3 -1 -1 -1 -2 -6 2 -2 6 -3 -5 -2 0 -1 -8 -10 11 -4
-4 -5 -3 0 -2 -5 0 -5 -2 -3 -2 -0 -2 2 -6 4 -2 -0 3 -1 -0 -3 -1 0 0 -1 1 -2 2 -1 -0 -0 3 -4 -1 1 -5 -6 -4 -5 -3 -8 -27 10 16
-3 -3 -3 -8 -3 0 -4 -3 -2 -2 -10 1 -0 10 8 1 2 -5 -3 -0 -0 -1 0 2 1 -2 -0 4 2 -3 2 4 1 -2 -2 3 -5 -6 2 -4 -11 0 -1 -2 -17
-4 -1 -1 4 -3 -3 -2 -4 -4 -6 -12 -7 7 -8 -9 -3 1 -0 -2 -1 -1 -1 5 1 1 -0 4 5 -1 8 -1 1 6 0 -1 -2 -4 -7 -15 -20 15 -5 -6 -1 -16
-4 -2 -6 -5 -1 -1 -1 -4 -5 -13 0 -7 -12 -4 1 -5 -1 -4 -4 -11 -13 -13 -7 -0 -1 -1 0 2 3 3 2 -0 -3 -0 -7 5 6 -19 2 -7 -10 1 14 9 5
-3 -1 -3 -3 -4 -3 -3 -1 -18 -1 -4 3 -4 5 -3 -11 2 -1 3 2 0 -2 2 -5 -11 -6 1 2 5 -3 5 -3 -5 -3 -3 1 -4 -10 -8 -5 0 2 -7 4 -3
-4 -3 -3 0 -4 -5 -4 -18 -1 2 5 -3 -2 -6 -4 1 4 -1 2 -2 -0 -0 -3 -2 -6 -1 -1 -3 2 1 -2 0 1 0 -2 -2 -2 -0 -3 3 2 -3 -5 -7 -3
-2 -1 -2 -4 -1 -6 -1 -11 0 2 -2 2 -2 1 -2 -8 -3 0 -3 -1 -1 4 5 1 -5 -1 -1 -1 -0 7 1 -6 -3 -3 0 -1 2 5 8 1 5 1 -0 6 -1
-2 -4 -2 -4 -8 4 -14 -5 -1 -0 -1 -3 -2 -1 4 -6 2 1 1 -2 2 -6 4 3 3 -5 0 -0 2 -2 1 -0 -1 -1 -2 -1 2 -2 5 2 16 4 -15 3 -1
-3 -1 -4 -2 1 -9 -1 -4 -2 0 -4 -0 3 3 0 -1 -6 2 -0 2 0 2 -4 1 1 -3 3 -6 -1 0 7 -1 1 0 0 1 4 -3 -5 -9 1 -2 -7 -0 8
-5 -0 1 -7 -11 -4 -2 0 -0 -1 -5 -1 -5 -2 2 1 -9 1 -0 6 1 -3 -3 -3 1 -5 -3 7 6 3 3 2 2 3 -0 -2 1 3 2 5 -1 2 8 6 7
-9 -1 -1 -9 -4 -1 -1 -3 -0 -3 -3 -2 0 0 2 -2 3 -10 -5 -0 1 2 -1 1 1 -0 -4 -1 -0 -5 1 2 5 2 2 -2 -2 4 1 7 5 1 3 2 1
-5 2 1 -6 -3 -4 -1 -1 -1 -8 -2 -3 3 5 1 -7 -5 -3 3 4 5 -0 0 2 -1 0 4 -1 9 -3 -3 -1 -3 -0 2 0 -6 -5 1 9 8 -1 -2 -3 -6
3 2 -1 -5 -2 0 -2 -3 -4 -1 -4 -1 -1 3 5 -0 -1 -14 0 6 2 3 -0 1 -0 -3 -0 5 5 1 6 5 2 5 0 6 1 -9 4 7 9 4 1 -0 4
-8 -0 -0 -4 -5 -0 -5 -3 -2 -2 -3 0 -2 -2 6 4 1 0 1 3 -1 -2 -1 -2 1 -2 -6 1 13 -10 2 7 3 2 -0 3 2 -7 -6 8 5 5 2 1 6
Height
3124 3119 3115 3110 3104 3098 3092 3085 3078 3070 3061 3054 3046 3040 3034 3030 3027 3021 3019 3017 3014 3012 3014 3013 3015 3018 3022 3024 3029 3034 3035 3034 3040 3046 3050 3058 3063 3069 3073 3075 3079 3085 3089 3091 3096
3122 3117 3112 3107 3101 3095 3088 3080 3073 3064 3055 3047 3040 3034 3029 3025 3021 3017 3017 3013 3012 3011 3008 3009 3010 3012 3015 3019 3024 3026 3027 3030 3038 3041 3046 3054 3057 3063 3068 3071 3076 3081 3086 3087 3093
3120 3115 3110 3103 3098 3092 3083 3074 3065 3057 3049 3041 3034 3029 3025 3020 3016 3013 3011 3011 3009 3007 3004 3005 3006 3008 3011 3015 3018 3021 3022 3030 3033 3039 3044 3048 3048 3055 3062 3067 3073 3077 3080 3085 3090
3117 3112 3107 3101 3094 3086 3078 3070 3061 3051 3043 3036 3030 3025 3020 3016 3017 3012 3010 3008 3005 3004 3001 3002 3004 3005 3006 3010 3014 3018 3020 3026 3030 3033 3038 3040 3042 3049 3054 3061 3066 3070 3078 3083 3087
3114 3110 3105 3098 3091 3083 3074 3064 3054 3045 3037 3030 3026 3021 3017 3015 3013 3011 3009 3007 3004 3001 2998 2999 2999 3002 3004 3006 3012 3013 3017 3021 3027 3029 3032 3034 3040 3045 3049 3058 3062 3066 3072 3079 3084
3112 3107 3103 3096 3089 3081 3071 3061 3050 3041 3032 3027 3024 3020 3017 3016 3013 3010 3008 3006 3002 3000 2997 2995 2997 2999 3002 3004 3007 3009 3013 3018 3023 3026 3028 3030 3035 3038 3040 3044 3056 3062 3066 3074 3080
3111 3105 3099 3092 3085 3078 3068 3058 3046 3037 3030 3026 3022 3019 3017 3016 3012 3010 3007 3005 3000 2998 2996 2994 2995 2997 2998 3004 3003 3007 3011 3014 3018 3025 3025 3029 3028 3028 3038 3042 3051 3057 3064 3069 3075
3109 3103 3096 3088 3081 3073 3063 3053 3041 3033 3027 3024 3022 3019 3016 3014 3011 3009 3007 3004 3000 2996 2996 2995 2993 2993 2996 2999 3002 3005 3009 3011 3014 3021 3025 3026 3027 3028 3037 3038 3045 3052 3060 3066 3070
3107 3100 3092 3084 3076 3067 3058 3049 3038 3030 3024 3021 3021 3018 3017 3014 3012 3009 3007 3003 2999 2997 2994 2993 2993 2991 2994 2997 3001 3002 3004 3008 3012 3017 3023 3024 3029 3032 3030 3035 3042 3045 3053 3061 3066
3105 3097 3089 3079 3071 3062 3053 3044 3037 3028 3024 3022 3021 3021 3018 3015 3011 3009 3006 3002 2999 2996 2995 2993 2992 2992 2992 2994 2995 2999 3002 3005 3008 3014 3017 3019 3023 3027 3029 3035 3039 3043 3050 3055 3061
3102 3095 3087 3077 3067 3058 3048 3037 3034 3028 3026 3025 3023 3019 3017 3014 3011 3009 3005 3002 2999 2996 2994 2992 2992 2991 2991 2993 2995 2998 3001 3003 3005 3011 3012 3016 3020 3025 3030 3031 3033 3036 3043 3050 3058
3100 3092 3084 3075 3065 3055 3044 3035 3028 3027 3026 3025 3023 3021 3017 3013 3011 3008 3004 3002 2997 2994 2993 2993 2990 2990 2990 2991 2992 2995 2998 3001 3004 3008 3008 3012 3016 3024 3028 3031 3033 3034 3037 3046 3053
3097 3090 3082 3072 3064 3055 3043 3034 3027 3025 3025 3025 3024 3020 3018 3015 3011 3007 3005 3000 2996 2994 2993 2991 2992 2990 2991 2990 2991 2993 2996 3000 3003 3004 3007 3010 3011 3014 3020 3026 3030 3032 3034 3040 3049
3095 3087 3078 3069 3060 3047 3041 3033 3027 3024 3025 3028 3024 3023 3020 3014 3013 3009 3004 3001 2997 2994 2991 2991 2990 2990 2990 2990 2991 2992 2995 2998 3002 3007 3008 3010 3012 3012 3016 3020 3024 3031 3035 3036 3046
3093 3085 3075 3064 3056 3048 3038 3030 3026 3027 3031 3030 3027 3024 3021 3018 3015 3011 3005 3000 2997 2994 2993 2992 2989 2989 2989 2991 2992 2993 2995 2997 3000 3006 3008 3010 3014 3011 3015 3018 3020 3025 3032 3038 3044
3091 3082 3072 3065 3056 3045 3035 3029 3026 3028 3032 3031 3029 3024 3020 3018 3015 3011 3006 3002 2998 2993 2991 2989 2987 2988 2988 2989 2990 2992 2994 2997 2999 3003 3007 3006 3011 3009 3008 3008 3016 3023 3029 3032 3037
3088 3080 3068 3060 3051 3041 3033 3029 3029 3032 3038 3034 3027 3025 3021 3017 3014 3011 3007 3001 2999 2994 2990 2989 2988 2987 2987 2988 2990 2991 2993 2996 3002 3005 3004 3001 3008 3003 3005 3010 3014 3020 3024 3029 3035
3086 3077 3067 3057 3048 3039 3033 3030 3029 3037 3035 3033 3029 3026 3022 3018 3015 3012 3010 3005 3003 2999 2995 2993 2990 2988 2987 2990 2991 2991 2993 2993 3005 3006 3001 3001 3003 3003 3006 3008 3010 3015 3022 3026 3030
3083 3075 3065 3056 3045 3037 3034 3030 3037 3037 3035 3031 3029 3024 3023 3022 3018 3013 3011 3009 3006 3003 3003 2996 2991 2989 2987 2988 2991 2991 2993 2995 2994 2997 3001 3001 3002 3003 3005 3007 3009 3011 3015 3021 3027
3079 3071 3061 3051 3042 3037 3035 3035 3039 3038 3035 3033 3030 3028 3024 3023 3019 3015 3012 3010 3007 3006 3004 2999 2993 2988 2987 2988 2990 2992 2995 2997 2996 3004 3002 3000 3000 2999 3003 3006 3008 3011 3014 3019 3026
3077 3067 3058 3049 3042 3041 3035 3037 3038 3037 3035 3035 3032 3029 3026 3023 3022 3016 3014 3011 3008 3004 3001 2998 2997 2991 2987 2988 2990 2993 2993 2996 2997 2999 2999 2997 3002 3001 3002 3004 3005 3008 3015 3018 3023
3074 3066 3054 3046 3047 3039 3037 3036 3036 3035 3034 3034 3032 3030 3026 3022 3020 3017 3013 3011 3008 3005 3000 2999 2996 2988 2984 2986 2989 2992 2995 2997 2997 2999 2998 2997 3004 3001 3000 3002 3003 3007 3013 3018 3022
3068 3059 3051 3047 3044 3042 3039 3038 3036 3034 3032 3031 3030 3027 3025 3024 3022 3016 3013 3011 3008 3004 3002 3000 2997 2992 2987 2990 2991 2993 2994 2996 2997 2997 2996 2998 3002 3000 3001 3001 3003 3008 3013 3016 3019
3066 3058 3049 3045 3044 3043 3040 3039 3036 3034 3031 3030 3028 3026 3023 3020 3019 3015 3011 3009 3007 3003 3002 3000 2997 2996 2995 2992 2993 2991 2992 2995 2997 2997 2998 2998 2999 2998 3000 3001 3001 3005 3008 3014 3019
3064 3056 3048 3047 3045 3043 3040 3038 3035 3032 3032 3029 3028 3024 3021 3015 3014 3012 3011 3007 3005 3003 3001 2998 2995 2993 2989 2986 2983 2985 2990 2993 2996 2997 2999 2999 3000 3001 3001 3001 3002 3005 3009 3015 3019
3063 3056 3047 3046 3045 3042 3040 3039 3036 3033 3030 3028 3024 3021 3019 3014 3013 3007 3008 3007 3004 3003 3000 2998 2995 2991 2986 2985 2982 2982 2989 2992 2995 2996 2998 2999 3000 3002 3001 3002 3004 3006 3010 3014 3020
3058 3052 3048 3047 3045 3042 3039 3037 3035 3031 3031 3026 3022 3020 3017 3014 3009 3007 3005 3004 3004 3002 3000 2998 2995 2992 2986 2984 2983 2986 2989 2989 2991 2992 2994 2997 2999 3002 3001 3003 3004 3008 3010 3014 3017